Location: Rancho Del Sol Observatory
(38.7214°N, 120.6350°W)
Time: 05:16:27
(UTC-07:00)

Cosmos 2221 Rocket - Visible Passes

Search period start: 25 June 2016 00:00
Search period end: 05 July 2016 00:00
Orbit: 622 x 647 km, 82.5° (Epoch: 25 June)

Date Brightness Start Highest point End Pass type
(mag) Time Alt. Az. Time Alt. Az. Time Alt. Az.
25 Jun 4.0 00:22:18 10° N 00:26:10 62° NNW 00:26:10 62° NNW visible
25 Jun 5.4 23:07:31 10° NNE 23:10:45 19° ENE 23:10:51 19° ENE visible
26 Jun 4.9 00:44:53 10° NNW 00:48:19 34° WNW 00:48:19 34° WNW visible
26 Jun 4.5 23:28:58 10° N 23:33:00 38° ENE 23:33:00 38° ENE visible
27 Jun 5.8 01:08:06 10° NW 01:10:29 17° WNW 01:10:29 17° WNW visible
27 Jun 3.7 23:51:00 10° N 23:55:11 73° NNE 23:55:11 73° NNE visible
28 Jun 5.6 22:36:39 10° NE 22:39:21 15° ENE 22:39:53 15° E visible
29 Jun 4.5 00:13:26 10° NNW 00:17:22 43° WNW 00:17:22 43° WNW visible
29 Jun 4.7 22:57:49 10° NNE 23:01:52 31° ENE 23:02:05 31° E visible
30 Jun 5.5 00:36:25 10° NW 00:39:34 21° W 00:39:34 21° W visible
30 Jun 3.6 23:19:43 10° N 23:24:15 67° E 23:24:18 66° E visible
01 Jul 5.7 22:05:59 10° NE 22:07:55 12° ENE 22:09:02 12° E visible
01 Jul 4.0 23:42:02 10° NNW 23:46:29 56° W 23:46:31 56° W visible
02 Jul 4.9 22:26:43 10° NNE 22:30:30 25° ENE 22:31:16 24° E visible
03 Jul 5.2 00:04:50 10° NNW 00:08:36 26° W 00:08:45 26° W visible
03 Jul 3.8 22:48:27 10° N 22:52:55 53° E 22:53:32 49° ESE visible
04 Jul 6.1 00:28:41 10° WNW 00:30:33 12° W 00:31:01 12° W visible
04 Jul 3.7 23:10:40 10° NNW 23:15:12 70° W 23:15:48 61° SW visible
